�������C�����ː����j�^�v���󋵏��
Date,Time,Cs137(Bq/L),Cs134(Bq/L),�S��(Bq/L)
2022/07/01,00:00,ND,ND,22
2022/07/01,00:10,ND,ND,23
2022/07/01,00:20,ND,ND,25
2022/07/01,00:30,ND,ND,24
2022/07/01,00:40,ND,ND,21
2022/07/01,00:50,ND,ND,22
2022/07/01,01:00,ND,ND,22
2022/07/01,01:10,ND,ND,21
2022/07/01,01:20,ND,ND,19
2022/07/01,01:30,ND,ND,16
2022/07/01,01:40,ND,ND,21
2022/07/01,01:50,ND,ND,22
2022/07/01,02:00,0.066,ND,21
2022/07/01,02:10,0.064,ND,22
2022/07/01,02:20,0.064,ND,23
2022/07/01,02:30,0.054,ND,24
2022/07/01,02:40,ND,ND,22
2022/07/01,02:50,ND,ND,24
2022/07/01,03:00,ND,ND,24
2022/07/01,03:10,ND,ND,26
2022/07/01,03:20,ND,ND,26
2022/07/01,03:30,ND,ND,27
2022/07/01,03:40,ND,ND,27
2022/07/01,03:50,ND,ND,25
2022/07/01,04:00,ND,ND,24
2022/07/01,04:10,ND,ND,20
2022/07/01,04:20,ND,ND,21
2022/07/01,04:30,ND,ND,21
2022/07/01,04:40,ND,ND,21
2022/07/01,04:50,ND,ND,21
2022/07/01,05:00,ND,ND,21
2022/07/01,05:10,ND,ND,24
2022/07/01,05:20,ND,ND,22
2022/07/01,05:30,ND,ND,21
2022/07/01,05:40,ND,ND,21
2022/07/01,05:50,ND,ND,22
2022/07/01,06:00,ND,ND,25
2022/07/01,06:10,ND,ND,24
2022/07/01,06:20,ND,ND,26
2022/07/01,06:30,ND,ND,26
2022/07/01,06:40,ND,ND,26
2022/07/01,06:50,ND,ND,24
2022/07/01,07:00,ND,ND,24
2022/07/01,07:10,ND,ND,21
2022/07/01,07:20,ND,ND,19
2022/07/01,07:30,ND,ND,19
2022/07/01,07:40,ND,ND,19
2022/07/01,07:50,ND,ND,19
2022/07/01,08:00,ND,ND,16
2022/07/01,08:10,ND,ND,19
2022/07/01,08:20,ND,ND,21
2022/07/01,08:30,ND,ND,18
2022/07/01,08:40,ND,ND,16
2022/07/01,08:50,ND,ND,18
2022/07/01,09:00,ND,ND,17
2022/07/01,09:10,ND,ND,17
2022/07/01,09:20,ND,ND,16
2022/07/01,09:30,ND,ND,19
2022/07/01,09:40,ND,ND,22
2022/07/01,09:50,ND,ND,24
2022/07/01,10:00,ND,ND,25
2022/07/01,10:10,ND,ND,24
2022/07/01,10:20,ND,ND,26
2022/07/01,10:30,ND,ND,25
2022/07/01,10:40,ND,ND,23
2022/07/01,10:50,ND,ND,17
2022/07/01,11:00,ND,ND,16
2022/07/01,11:10,ND,ND,18
2022/07/01,11:20,ND,ND,19
2022/07/01,11:30,ND,ND,16
2022/07/01,11:40,ND,ND,20
2022/07/01,11:50,ND,ND,22
2022/07/01,12:00,0.067,ND,23
2022/07/01,12:10,0.061,ND,23
2022/07/01,12:20,ND,ND,24
2022/07/01,12:30,0.057,ND,25
2022/07/01,12:40,ND,ND,20
2022/07/01,12:50,ND,ND,18
2022/07/01,13:00,ND,ND,20
2022/07/01,13:10,ND,ND,20
2022/07/01,13:20,ND,ND,17
2022/07/01,13:30,ND,ND,18
2022/07/01,13:40,ND,ND,20
2022/07/01,13:50,ND,ND,21
2022/07/01,14:00,ND,ND,19
2022/07/01,14:10,ND,ND,18
2022/07/01,14:20,ND,ND,17
2022/07/01,14:30,0.055,ND,17
2022/07/01,14:40,0.053,ND,17
2022/07/01,14:50,ND,ND,16
2022/07/01,15:00,ND,ND,15
2022/07/01,15:10,0.050,ND,14
2022/07/01,15:20,ND,ND,14
2022/07/01,15:30,ND,ND,16
2022/07/01,15:40,ND,ND,14
2022/07/01,15:50,ND,ND,16
2022/07/01,16:00,ND,ND,17
2022/07/01,16:10,0.049,ND,16
2022/07/01,16:20,ND,ND,22
2022/07/01,16:30,ND,ND,19
2022/07/01,16:40,ND,ND,19
2022/07/01,16:50,ND,ND,18
2022/07/01,17:00,ND,ND,17
2022/07/01,17:10,ND,ND,19
2022/07/01,17:20,ND,ND,17
2022/07/01,17:30,ND,ND,17
2022/07/01,17:40,ND,ND,17
2022/07/01,17:50,ND,ND,19
2022/07/01,18:00,ND,ND,20
2022/07/01,18:10,ND,ND,20
2022/07/01,18:20,ND,ND,19
2022/07/01,18:30,ND,ND,19
2022/07/01,18:40,ND,ND,19
2022/07/01,18:50,ND,ND,18
2022/07/01,19:00,ND,ND,20
2022/07/01,19:10,ND,ND,20
2022/07/01,19:20,ND,ND,23
2022/07/01,19:30,ND,ND,26
2022/07/01,19:40,ND,ND,26
2022/07/01,19:50,ND,ND,25
2022/07/01,20:00,ND,ND,24
2022/07/01,20:10,ND,ND,23
2022/07/01,20:20,ND,ND,18
2022/07/01,20:30,ND,ND,15
2022/07/01,20:40,ND,ND,15
2022/07/01,20:50,ND,ND,12
2022/07/01,21:00,ND,ND,12
2022/07/01,21:10,ND,ND,15
2022/07/01,21:20,ND,ND,19
2022/07/01,21:30,ND,ND,22
2022/07/01,21:40,0.064,ND,24
2022/07/01,21:50,0.072,ND,27
2022/07/01,22:00,ND,ND,26
2022/07/01,22:10,0.056,ND,24
2022/07/01,22:20,0.050,ND,25
2022/07/01,22:30,0.059,ND,23
2022/07/01,22:40,0.061,ND,23
2022/07/01,22:50,0.076,ND,20
2022/07/01,23:00,0.062,ND,20
2022/07/01,23:10,0.067,ND,19
2022/07/01,23:20,ND,ND,15
2022/07/01,23:30,ND,ND,12
2022/07/01,23:40,ND,ND,12
2022/07/01,23:50,ND,ND,12
